Location: Kosice
(0.0000°N, 21.2500°E)
Time: 18:51:10
(UTC+01:00)

Cosmos 923 Rocket - Pass Details

Date: 24 January 2021
Orbit: 758 x 785 km, 74.0° (Epoch: 01 March)

Event Time Altitude Azimuth Distance (km) Brightness Sun altitude
Rises 18:41:20 0° 352° (N) 3,240 7.1 -12.8°
Reaches altitude 10° 18:43:44 10° 354° (N) 2,311 6.3 -13.3°
Maximum altitude 18:48:57 71° 78° (ENE) 811 3.9 -14.6°
Drops below altitude 10° 18:54:10 10° 162° (SSE) 2,303 6.5 -15.8°
Sets 18:56:32 0° 164° (SSE) 3,227 7.3 -16.4°
